Back to catalog

KUIPER-00193

AliveCommunicationsLEO
NORAD 68576·PAYLOAD·🇺🇸 United States

Launched Apr 4, 2026 from Cape Canaveral Space Force Station

Loading…

Next Passes (next 24 hours)

TLE

FreshSource: CelesTrak SupGP

Epoch: Sep 14, 2026, 16:00 UTC

1 68576C 26072D   26257.66677083  .00001794  00000+0  23480-3 0  2571
2 68576  51.9035 147.5161 0001149  99.4688   2.2196 14.79934938    19

Track KUIPER-00193 in real time with AllMySat

Download on the App Store